Terminal Aerodrome Forecast
Issued by NWS

Home | Current Version | Previous Version | Text Only | Print | Product List | Glossary On
Versions: 1 2 3 4 5 6 7 8 9 10 11 12 13 14 15 16 17 18 19 20 21 22 23 24 25 26 27 28 29 30
000
FTUS46 KLOX 011735
TAFLAX
TAF
KLAX 011735Z 0118/0224 27006KT P6SM VCSH SCT080 OVC150
     FM012000 27012KT P6SM VCSH SCT080 OVC150
     FM020500 VRB03KT P6SM SCT007 BKN150
     FM021600 27006KT P6SM SCT007 SCT150
     FM022000 27012KT P6SM SCT150=

USA.gov is the U.S. government's official web portal to all federal, state and local government web resources and services.